Weather History for New York, NY

Change the Weather History Date:

Sunday, December 9, 2012

  Actual Average Record
Temperature  
Mean Temperature 47 °F 40 °F  
Max Temperature 51 °F 46 °F 66 °F (1966)
Min Temperature 43 °F 34 °F 13 °F (1968)
Degree Days  
Heating Degree Days 18 25  
Month to date heating degree days 168 210  
Since 1 July heating degree days 940 985  
Cooling Degree Days 0 0  
Month to date cooling degree days 0 0  
Year to date cooling degree days 1511 1214  
Moisture  
Dew Point 41 °F    
Average Humidity 79    
Maximum Humidity 93    
Minimum Humidity 65    
Precipitation  
Precipitation 0.30 in 0.13 in 1.81 in (1973)
Month to date precipitation 0.85 1.12  
Year to date precipitation 33.26 42.29  
Snow  
Snow 0.00 in 0.10 in 3.80 in (2005)
Month to date snowfall 0.0 0.9  
Since 1 July snowfall 1.1 1.2  
Snow Depth 0.00 in    
Sea Level Pressure  
Sea Level Pressure 30.15 in    
Wind  
Wind Speed 9 mph (NE)    
Max Wind Speed 20 mph    
Max Gust Speed 24 mph    
Visibility 7 miles    
Events Rain    
T = Trace of Precipitation, MM = Missing Value Source: NWS Daily Summary

Daily Weather History Graph

Daily Weather History Graph

Search for Another Location

Airport:

Trip Planner

Search our weather history database for the weather conditions in past years. The results will help you decide how hot, cold, wet, or windy it might be!

Date:

Astronomy

Dec. 09, 2012 Rise Set
Actual Time 7:08 AM EST 4:27 PM EST
Civil Twilight 6:37 AM EST 4:58 PM EST
Nautical Twilight 6:03 AM EST 5:32 PM EST
Astronomical Twilight 5:29 AM EST 6:06 PM EST
Moon 2:37 AM EST (12/9) 1:33 PM EST (12/9)
Length of Visible Light 10h 21m
Length of Day
9h 19m
Waning Crescent, 19% of the Moon is Illuminated
Dec 9
Waning Crescent
Dec 13
New
Dec 20
First Quarter
Dec 28
Full
Jan 4
Last Quarter

Hourly Weather History & Observations

Time (EST) Temp. Windchill Dew Point Humidity Pressure Visibility Wind Dir Wind Speed Gust Speed Precip Events Conditions
12:51 AM 51.1 °F - 48.0 °F 89% 30.01 in 6.0 mi WSW 4.6 mph - 0.01 in Rain Light Rain
1:51 AM 50.0 °F - 46.9 °F 89% 30.03 in 5.0 mi WNW 3.5 mph - 0.00 in   Mostly Cloudy
2:51 AM 50.0 °F - 46.0 °F 86% 30.05 in 6.0 mi NW 4.6 mph - N/A   Mostly Cloudy
3:51 AM 50.0 °F - 45.0 °F 83% 30.07 in 6.0 mi NW 6.9 mph - N/A   Haze
4:51 AM 50.0 °F - 44.1 °F 80% 30.09 in 10.0 mi NW 5.8 mph - N/A   Mostly Cloudy
5:48 AM 46.4 °F 41.1 °F 44.6 °F 93% 30.14 in 5.0 mi ENE 11.5 mph - N/A   Overcast
5:51 AM 46.0 °F 41.0 °F 44.1 °F 93% 30.14 in 5.0 mi ENE 10.4 mph - N/A   Overcast
6:51 AM 46.9 °F - 44.1 °F 90% 30.17 in 5.0 mi North 5.8 mph - N/A   Mostly Cloudy
7:51 AM 48.0 °F - 43.0 °F 83% 30.20 in 7.0 mi North 8.1 mph - N/A   Mostly Cloudy
8:51 AM 46.9 °F - 37.9 °F 71% 30.23 in 10.0 mi NNE 11.5 mph - N/A   Mostly Cloudy
9:51 AM 45.0 °F 38.5 °F 37.0 °F 74% 30.25 in 10.0 mi NE 13.8 mph - N/A   Mostly Cloudy
10:51 AM 44.1 °F 39.0 °F 35.1 °F 71% 30.25 in 10.0 mi NNE 9.2 mph - 0.00 in Rain Light Rain
11:39 AM 44.6 °F 40.2 °F 33.8 °F 66% 30.24 in 10.0 mi NE 8.1 mph - 0.00 in Rain Light Rain
11:51 AM 44.1 °F 40.1 °F 33.1 °F 65% 30.23 in 10.0 mi NNE 6.9 mph - 0.00 in Rain Light Rain
12:51 PM 45.0 °F 40.6 °F 34.0 °F 65% 30.21 in 10.0 mi NE 8.1 mph - 0.01 in Rain Light Rain
1:51 PM 45.0 °F 40.1 °F 34.0 °F 65% 30.20 in 10.0 mi NE 9.2 mph - 0.00 in Rain Light Rain
2:51 PM 44.1 °F 39.0 °F 35.1 °F 71% 30.21 in 10.0 mi ENE 9.2 mph - 0.00 in Rain Light Rain
3:51 PM 46.0 °F 40.2 °F 36.0 °F 68% 30.21 in 10.0 mi ENE 12.7 mph 23.0 mph 0.00 in   Overcast
4:21 PM 44.6 °F 38.8 °F 35.6 °F 71% 30.21 in 10.0 mi ENE 11.5 mph - 0.00 in Rain Light Rain
4:51 PM 44.6 °F 39.2 °F 37.4 °F 76% 30.20 in 8.0 mi ENE 10.4 mph - N/A Rain Light Rain
5:51 PM 44.1 °F 37.7 °F 39.0 °F 82% 30.21 in 7.0 mi ENE 12.7 mph - 0.05 in Rain Light Rain
6:49 PM 44.6 °F 38.4 °F 41.0 °F 87% 30.19 in 5.0 mi ENE 12.7 mph - 0.00 in Rain Light Rain
6:51 PM 44.1 °F 37.7 °F 41.0 °F 89% 30.19 in 5.0 mi ENE 12.7 mph - 0.00 in   Overcast
7:22 PM 44.6 °F 38.4 °F 41.0 °F 87% 30.18 in 4.0 mi ENE 12.7 mph - 0.01 in Rain Light Rain
7:45 PM 44.6 °F 38.8 °F 42.8 °F 93% 30.17 in 2.5 mi ENE 11.5 mph - 0.01 in Rain Light Rain
7:51 PM 44.1 °F 38.6 °F 42.1 °F 93% 30.17 in 2.5 mi ENE 10.4 mph - 0.02 in Rain Light Rain
8:20 PM 44.6 °F 38.8 °F 42.8 °F 93% 30.15 in 3.0 mi ENE 11.5 mph - 0.00 in Rain Light Rain
8:51 PM 45.0 °F 39.3 °F 42.1 °F 90% 30.13 in 5.0 mi ENE 11.5 mph - 0.01 in Rain Light Rain
9:25 PM 44.6 °F 38.4 °F 42.8 °F 93% 30.10 in 10.0 mi East 12.7 mph - 0.01 in Rain Light Rain
9:51 PM 45.0 °F 38.9 °F 42.1 °F 90% 30.09 in 10.0 mi ENE 12.7 mph - 0.01 in   Overcast
10:51 PM 44.1 °F 38.1 °F 42.1 °F 93% 30.05 in 5.0 mi ENE 11.5 mph - 0.01 in Rain Light Rain
11:15 PM 44.6 °F 40.7 °F 42.8 °F 93% 30.05 in 2.5 mi NE 6.9 mph - 0.02 in Rain Light Rain
11:47 PM 44.6 °F 38.4 °F 42.8 °F 93% 30.02 in 3.0 mi NE 12.7 mph - 0.16 in Rain Light Rain
11:51 PM 44.6 °F 38.4 °F 42.8 °F 93% 30.02 in 3.0 mi ENE 12.7 mph - N/A Rain Light Rain